Spencer, IA

12:09 AM CST on January 20, 2017 (GMT -0600)
Spencer Municipal

Weather History for KSPW - January, 2013

Change the Weather History Date:

Sunday, January 27, 2013

  Actual Average Record
Temperature  
Mean Temperature 30 °F -  
Max Temperature 33 °F 25 °F 54 °F (2002)
Min Temperature 28 °F 5 °F -17 °F (1977)
Degree Days  
Heating Degree Days 34    
Moisture  
Dew Point 28 °F    
Average Humidity 85    
Maximum Humidity 96    
Minimum Humidity 56    
Precipitation  
Precipitation 0.13 in - - ()
Sea Level Pressure  
Sea Level Pressure 29.85 in    
Wind  
Wind Speed 11 mph (SE)    
Max Wind Speed 15 mph    
Max Gust Speed 18 mph    
Visibility 4 miles    
Events Fog , Rain    
Averages and records for this station are not official NWS values.
T = Trace of Precipitation, MM = Missing Value Source: NWS Daily Summary

Daily Weather History Graph

Daily Weather History Graph

Search for Another Location

Airport or City:

Trip Planner

Search our weather history database for the weather conditions in past years. The results will help you decide how hot, cold, wet, or windy it might be!

Date:

Astronomy

Jan. 27, 2013 Rise Set
Actual Time 7:40 AM CST 5:26 PM CST
Civil Twilight 7:10 AM CST 5:57 PM CST
Nautical Twilight 6:36 AM CST 6:31 PM CST
Astronomical Twilight 6:02 AM CST 7:05 PM CST
Moon 6:24 PM CST (1/27) 7:32 AM CST (1/27)
Length of Visible Light 10h 47m
Length of Day
9h 45m
Full, 100% of the Moon is Illuminated
Jan 27
Full
Feb 3
Last Quarter
Feb 10
New
Feb 17
First Quarter
Feb 25
Full

Hourly Weather History & Observations

Time (CST) Temp. Windchill Dew Point Humidity Pressure Visibility Wind Dir Wind Speed Gust Speed Precip Events Conditions
12:53 AM 28.0 °F 18.1 °F 16.0 °F 61% 30.06 in 10.0 mi SSE 11.5 mph - N/A   Clear
1:53 AM 30.0 °F 20.0 °F 17.1 °F 59% 30.05 in 10.0 mi SE 12.7 mph - N/A   Overcast
2:53 AM 28.0 °F 18.1 °F 16.0 °F 61% 30.03 in 10.0 mi SE 11.5 mph - N/A   Clear
3:53 AM 30.0 °F 19.5 °F 18.0 °F 61% 30.00 in 10.0 mi SSE 13.8 mph - N/A   Overcast
4:53 AM 32.0 °F 22.1 °F 18.0 °F 56% 29.99 in 10.0 mi SSE 13.8 mph - N/A   Overcast
6:03 AM 32.0 °F 23.0 °F 19.4 °F 60% 29.92 in 10.0 mi SSE 11.5 mph - N/A   Overcast
6:53 AM 32.0 °F 22.5 °F 24.1 °F 73% 29.95 in 9.0 mi SE 12.7 mph - 0.00 in   Overcast
7:10 AM 32.0 °F 22.1 °F 26.6 °F 80% 29.90 in 9.0 mi SE 13.8 mph - 0.00 in   Overcast
7:39 AM 32.0 °F 22.5 °F 28.4 °F 87% 29.89 in 7.0 mi SSE 12.7 mph - 0.00 in Rain Light Freezing Rain
7:45 AM 33.8 °F 24.3 °F 28.4 °F 81% 29.88 in 6.0 mi SE 13.8 mph - 0.01 in Rain Light Freezing Rain
7:53 AM 33.1 °F 23.0 °F 28.9 °F 85% 29.93 in 5.0 mi SE 15.0 mph - 0.01 in Rain Light Freezing Rain
8:06 AM 33.8 °F 23.9 °F 30.2 °F 87% 29.88 in 3.0 mi SSE 15.0 mph - 0.01 in Rain Light Freezing Rain
8:53 AM 33.1 °F 24.4 °F 30.0 °F 89% 29.92 in 4.0 mi SSE 11.5 mph - 0.02 in Rain Light Freezing Rain
9:20 AM 33.8 °F 23.9 °F 30.2 °F 87% 29.87 in 2.5 mi SSE 15.0 mph - 0.02 in Rain Light Freezing Rain
9:34 AM 33.8 °F 23.9 °F 30.2 °F 87% 29.87 in 2.5 mi SSE 15.0 mph - 0.04 in Rain Light Rain
9:42 AM 33.8 °F 27.0 °F 30.2 °F 87% 29.87 in 4.0 mi SSE 8.1 mph 18.4 mph 0.04 in Rain Light Rain
9:53 AM 33.1 °F 24.9 °F 30.9 °F 92% 29.91 in 3.0 mi SSE 10.4 mph - 0.05 in Rain Light Rain
10:53 AM 33.1 °F 24.4 °F 30.9 °F 92% 29.92 in 5.0 mi SSE 11.5 mph - 0.02 in   Overcast
11:19 AM 33.8 °F 26.4 °F 30.2 °F 87% 29.85 in 3.0 mi SE 9.2 mph - N/A   Overcast
11:30 AM 33.8 °F 25.8 °F 30.2 °F 87% 29.84 in 2.0 mi SE 10.4 mph - N/A   Overcast
11:38 AM 33.8 °F 25.3 °F 30.2 °F 87% 29.84 in 1.5 mi SE 11.5 mph - N/A   Overcast
11:53 AM 33.1 °F 24.4 °F 30.9 °F 92% 29.88 in 1.0 mi SE 11.5 mph - N/A   Overcast
12:10 PM 33.8 °F 24.8 °F 30.2 °F 87% 29.83 in 0.8 mi SE 12.7 mph - N/A   Overcast
12:53 PM 33.1 °F 23.9 °F 30.9 °F 92% 29.85 in 1.0 mi SE 12.7 mph - 0.01 in   Overcast
1:53 PM 33.1 °F 24.4 °F 30.9 °F 92% 29.80 in 1.5 mi SE 11.5 mph - 0.01 in   Overcast
2:10 PM 33.8 °F 24.8 °F 30.2 °F 87% 29.75 in 2.0 mi SE 12.7 mph - N/A   Overcast
2:53 PM 33.1 °F 25.5 °F 30.9 °F 92% 29.80 in 2.0 mi SE 9.2 mph - N/A   Overcast
3:16 PM 33.8 °F 25.8 °F 30.2 °F 87% 29.75 in 1.8 mi SE 10.4 mph - 0.01 in   Overcast
3:24 PM 33.8 °F 25.8 °F 30.2 °F 87% 29.75 in 2.0 mi SE 10.4 mph - 0.01 in   Overcast
3:53 PM 33.1 °F 23.9 °F 30.9 °F 92% 29.78 in 2.5 mi SE 12.7 mph - 0.01 in   Overcast
4:14 PM 33.8 °F 25.8 °F 30.2 °F 87% 29.74 in 3.0 mi SSE 10.4 mph - N/A   Overcast
4:53 PM 33.1 °F 26.9 °F 30.9 °F 92% 29.78 in 6.0 mi SSE 6.9 mph - N/A   Overcast
5:53 PM 33.1 °F 30.0 °F 32.0 °F 96% 29.79 in 6.0 mi ESE 3.5 mph - N/A   Overcast
6:53 PM 33.1 °F 30.0 °F 30.9 °F 92% 29.80 in 5.0 mi East 3.5 mph - N/A   Overcast
7:38 PM 33.8 °F - 32.0 °F 93% 29.76 in 2.0 mi Calm Calm - N/A   Overcast
7:46 PM 33.8 °F - 30.2 °F 87% 29.77 in 1.5 mi Calm Calm - N/A   Overcast
7:53 PM 33.1 °F 30.0 °F 30.9 °F 92% 29.81 in 1.2 mi ESE 3.5 mph - N/A   Overcast
8:07 PM 32.0 °F 28.7 °F 30.2 °F 93% 29.76 in 0.8 mi ESE 3.5 mph - N/A   Mist
8:53 PM 33.1 °F - 30.9 °F 92% 29.80 in 0.5 mi Calm Calm - N/A Fog Fog
9:16 PM 33.8 °F - 30.2 °F 87% 29.76 in 0.2 mi Calm Calm - N/A Fog Fog
9:53 PM 33.1 °F - 30.9 °F 92% 29.81 in 0.2 mi Calm Calm - N/A Fog Fog
10:53 PM 32.0 °F - 30.9 °F 96% 29.81 in 0.2 mi Calm Calm - N/A Fog Fog
11:53 PM 32.0 °F - 30.0 °F 92% 29.81 in 0.2 mi Calm Calm - N/A Fog Fog